Appleton, MN

2:22 PM CST on February 10, 2016 (GMT -0600)
Appleton Municipal

Weather History for KAQP - July, 2013

Change the Weather History Date:

Saturday, July 13, 2013

  Actual Average Record
Temperature  
Mean Temperature 80 °F -  
Max Temperature 84 °F 80 °F 95 °F (1998)
Min Temperature 75 °F 60 °F 46 °F (2007)
Cooling Degree Days 14    
Growing Degree Days 30 (Base 50)    
Moisture  
Dew Point 68 °F    
Average Humidity 72    
Maximum Humidity 83    
Minimum Humidity 62    
Precipitation  
Precipitation 0.00 in - - ()
Sea Level Pressure  
Sea Level Pressure 29.91 in    
Wind  
Wind Speed 7 mph (SE)    
Max Wind Speed 18 mph    
Max Gust Speed 23 mph    
Visibility 10 miles    
Events Rain    
Averages and records for this station are not official NWS values.
T = Trace of Precipitation, MM = Missing Value Source: NWS Daily Summary

Daily Weather History Graph

Daily Weather History Graph

Search for Another Location

Airport or City:

Trip Planner

Search our weather history database for the weather conditions in past years. The results will help you decide how hot, cold, wet, or windy it might be!

Date:

Astronomy

Jul. 13, 2013 Rise Set
Actual Time 5:49 AM CDT 9:09 PM CDT
Civil Twilight 5:12 AM CDT 9:46 PM CDT
Nautical Twilight 4:25 AM CDT 10:33 PM CDT
Astronomical Twilight 3:25 AM CDT 11:32 PM CDT
Moon 11:23 AM CDT (7/13) 11:32 PM CDT (7/13)
Length of Visible Light 16h 33m
Length of Day
15h 20m
Waxing Crescent, 26% of the Moon is Illuminated
Jul 13
Waxing Crescent
Jul 15
First Quarter
Jul 22
Full
Jul 29
Last Quarter
Aug 6
New

Hourly Weather History & Observations

Time (CDT) Temp. Heat Index Dew Point Humidity Pressure Visibility Wind Dir Wind Speed Gust Speed Precip Events Conditions
12:13 AM 82.4 °F 86.3 °F 69.8 °F 66% 29.83 in 10.0 mi South 9.2 mph 17.3 mph N/A   Scattered Clouds
12:34 AM 82.4 °F 86.3 °F 69.8 °F 66% 29.84 in 10.0 mi South 6.9 mph - N/A   Clear
12:53 AM 82.4 °F 86.3 °F 69.8 °F 66% 29.85 in 10.0 mi WNW 4.6 mph - N/A   Clear
1:13 AM 80.6 °F 83.9 °F 69.8 °F 70% 29.85 in 10.0 mi Calm Calm - N/A   Clear
1:33 AM 80.6 °F 83.9 °F 69.8 °F 70% 29.84 in 10.0 mi South 5.8 mph - N/A   Clear
1:54 AM 80.6 °F 83.9 °F 69.8 °F 70% 29.84 in 10.0 mi WSW 3.5 mph - N/A   Clear
2:14 AM 80.6 °F 83.2 °F 68.0 °F 65% 29.84 in 10.0 mi SSW 3.5 mph - N/A   Clear
2:35 AM 80.6 °F 83.2 °F 68.0 °F 65% 29.85 in 10.0 mi Calm Calm - N/A   Clear
2:53 AM 78.8 °F - 69.8 °F 74% 29.85 in 10.0 mi East 3.5 mph - N/A   Clear
3:14 AM 75.2 °F - 69.8 °F 83% 29.85 in 10.0 mi East 5.8 mph - N/A   Clear
3:34 AM 75.2 °F - 69.8 °F 83% 29.85 in 10.0 mi ESE 4.6 mph - N/A   Clear
3:53 AM 75.2 °F - 69.8 °F 83% 29.85 in 10.0 mi ESE 5.8 mph - N/A   Clear
4:13 AM 75.2 °F - 69.8 °F 83% 29.85 in 10.0 mi SE 3.5 mph - N/A   Clear
4:33 AM 75.2 °F - 69.8 °F 83% 29.86 in 10.0 mi ESE 4.6 mph - N/A   Mostly Cloudy
4:53 AM 75.2 °F - 69.8 °F 83% 29.87 in 10.0 mi SE 4.6 mph - N/A   Overcast
5:13 AM 75.2 °F - 68.0 °F 78% 29.86 in 10.0 mi SE 3.5 mph - N/A   Overcast
5:33 AM 75.2 °F - 68.0 °F 78% 29.87 in 10.0 mi SE 6.9 mph - N/A   Overcast
5:54 AM 75.2 °F - 68.0 °F 78% 29.87 in 10.0 mi SSE 6.9 mph - N/A   Overcast
6:13 AM 75.2 °F - 69.8 °F 83% 29.88 in 10.0 mi SE 4.6 mph - N/A   Mostly Cloudy
6:33 AM 75.2 °F - 69.8 °F 83% 29.88 in 10.0 mi SSE 6.9 mph - N/A   Overcast
6:53 AM 75.2 °F - 69.8 °F 83% 29.89 in 10.0 mi SE 4.6 mph - N/A   Overcast
7:13 AM 77.0 °F - 69.8 °F 78% 29.89 in 10.0 mi ESE 6.9 mph - N/A   Mostly Cloudy
7:33 AM 77.0 °F - 69.8 °F 78% 29.89 in 10.0 mi ESE 6.9 mph - N/A   Scattered Clouds
7:54 AM 77.0 °F - 68.0 °F 74% 29.90 in 10.0 mi SE 9.2 mph - N/A   Scattered Clouds
8:14 AM 77.0 °F - 68.0 °F 74% 29.91 in 10.0 mi SSE 5.8 mph - N/A   Mostly Cloudy
8:34 AM 78.8 °F - 69.8 °F 74% 29.91 in 10.0 mi SE 9.2 mph - N/A   Scattered Clouds
8:53 AM 78.8 °F - 69.8 °F 74% 29.92 in 10.0 mi SE 10.4 mph - N/A   Mostly Cloudy
9:13 AM 78.8 °F - 68.0 °F 69% 29.92 in 10.0 mi SE 9.2 mph - N/A   Overcast
9:33 AM 77.0 °F - 66.2 °F 69% 29.92 in 10.0 mi SE 6.9 mph - N/A   Mostly Cloudy
9:54 AM 77.0 °F - 66.2 °F 69% 29.93 in 10.0 mi SSE 6.9 mph - N/A   Overcast
10:13 AM 77.0 °F - 66.2 °F 69% 29.94 in 10.0 mi SSE 8.1 mph - N/A   Overcast
10:34 AM 78.8 °F - 68.0 °F 69% 29.93 in 10.0 mi SSE 5.8 mph - N/A   Mostly Cloudy
10:53 AM 78.8 °F - 69.8 °F 74% 29.93 in 7.0 mi SSE 5.8 mph - N/A   Mostly Cloudy
11:13 AM 78.8 °F - 68.0 °F 69% 29.92 in 10.0 mi SE 11.5 mph - N/A   Scattered Clouds
11:33 AM 78.8 °F - 68.0 °F 69% 29.90 in 10.0 mi SE 17.3 mph - N/A Rain Light Rain
11:54 AM 78.8 °F - 68.0 °F 69% 29.89 in 10.0 mi ESE 15.0 mph 23.0 mph N/A Rain Light Rain
12:13 PM 77.0 °F - 66.2 °F 69% 29.91 in 10.0 mi SE 10.4 mph 20.7 mph N/A   Scattered Clouds
12:33 PM 75.2 °F - 66.2 °F 73% 29.93 in 10.0 mi SSE 5.8 mph - N/A   Scattered Clouds
12:53 PM 77.0 °F - 68.0 °F 74% 29.95 in 10.0 mi South 9.2 mph - N/A   Mostly Cloudy
1:13 PM 77.0 °F - 66.2 °F 69% 29.95 in 10.0 mi South 10.4 mph - N/A   Mostly Cloudy
1:34 PM 78.8 °F - 68.0 °F 69% 29.95 in 10.0 mi South 5.8 mph - N/A   Mostly Cloudy
1:53 PM 80.6 °F 83.9 °F 69.8 °F 70% 29.95 in 10.0 mi South 6.9 mph - N/A   Scattered Clouds
2:13 PM 80.6 °F 83.9 °F 69.8 °F 70% 29.95 in 10.0 mi SSE 6.9 mph - N/A   Scattered Clouds
2:33 PM 80.6 °F 83.9 °F 69.8 °F 70% 29.95 in 10.0 mi SSE 5.8 mph - N/A   Clear
2:53 PM 80.6 °F 83.9 °F 69.8 °F 70% 29.94 in 10.0 mi SE 4.6 mph - N/A   Clear
3:13 PM 82.4 °F 86.3 °F 69.8 °F 66% 29.94 in 10.0 mi SE 5.8 mph - N/A   Clear
3:34 PM 82.4 °F 86.3 °F 69.8 °F 66% 29.94 in 10.0 mi East 8.1 mph - N/A   Clear
3:53 PM 84.2 °F 88.4 °F 69.8 °F 62% 29.94 in 10.0 mi SE 9.2 mph - N/A   Clear
4:13 PM 82.4 °F 86.3 °F 69.8 °F 66% 29.94 in 10.0 mi SE 9.2 mph - N/A   Scattered Clouds
4:33 PM 82.4 °F 86.3 °F 69.8 °F 66% 29.94 in 10.0 mi SE 8.1 mph - N/A   Mostly Cloudy
4:53 PM 80.6 °F 83.9 °F 69.8 °F 70% 29.94 in 10.0 mi ESE 10.4 mph - N/A   Overcast
5:14 PM 80.6 °F 83.9 °F 69.8 °F 70% 29.94 in 10.0 mi ESE 10.4 mph - N/A   Mostly Cloudy
5:34 PM 80.6 °F 83.9 °F 69.8 °F 70% 29.95 in 10.0 mi ESE 12.7 mph - N/A   Mostly Cloudy
5:54 PM 80.6 °F 83.9 °F 69.8 °F 70% 29.95 in 10.0 mi ESE 12.7 mph - N/A   Overcast
6:13 PM 78.8 °F - 68.0 °F 69% 29.95 in 10.0 mi East 12.7 mph - N/A   Overcast
6:33 PM 78.8 °F - 68.0 °F 69% 29.95 in 10.0 mi East 15.0 mph - N/A   Mostly Cloudy
6:53 PM 78.8 °F - 66.2 °F 65% 29.94 in 10.0 mi ESE 16.1 mph - N/A   Mostly Cloudy
7:14 PM 77.0 °F - 66.2 °F 69% 29.95 in 10.0 mi East 13.8 mph 20.7 mph N/A   Mostly Cloudy
7:33 PM 75.2 °F - 66.2 °F 73% 29.94 in 10.0 mi East 17.3 mph 21.9 mph N/A   Scattered Clouds
7:53 PM 75.2 °F - 66.2 °F 73% 29.93 in 10.0 mi ESE 18.4 mph - N/A   Mostly Cloudy
8:14 PM 75.2 °F - 66.2 °F 73% 29.93 in 10.0 mi ESE 15.0 mph - N/A   Mostly Cloudy
8:33 PM 75.2 °F - 66.2 °F 73% 29.93 in 10.0 mi ESE 13.8 mph 19.6 mph N/A   Mostly Cloudy
8:53 PM 75.2 °F - 66.2 °F 73% 29.93 in 10.0 mi ESE 11.5 mph - N/A   Mostly Cloudy
9:13 PM 75.2 °F - 66.2 °F 73% 29.93 in 10.0 mi ESE 9.2 mph - N/A   Mostly Cloudy
9:33 PM 75.2 °F - 66.2 °F 73% 29.94 in 10.0 mi ESE 10.4 mph - N/A   Mostly Cloudy
9:53 PM 75.2 °F - 66.2 °F 73% 29.95 in 10.0 mi ESE 10.4 mph - N/A   Mostly Cloudy
10:13 PM 75.2 °F - 66.2 °F 73% 29.96 in 10.0 mi ESE 9.2 mph - N/A   Mostly Cloudy
10:33 PM 75.2 °F - 66.2 °F 73% 29.97 in 10.0 mi ESE 10.4 mph - N/A   Overcast
10:54 PM 75.2 °F - 66.2 °F 73% 29.98 in 10.0 mi ESE 9.2 mph - N/A   Overcast
11:13 PM 75.2 °F - 66.2 °F 73% 29.99 in 10.0 mi ESE 8.1 mph - N/A   Overcast
11:33 PM 75.2 °F - 66.2 °F 73% 29.99 in 10.0 mi ESE 8.1 mph - N/A   Mostly Cloudy
11:53 PM 75.2 °F - 66.2 °F 73% 29.99 in 10.0 mi ESE 9.2 mph - N/A   Mostly Cloudy